HTR127 LPPI-LPMA

Flight info

Callsign HTR127
Flight time 1h 34m
Altitude 37000
Route ASPEX DCT RODIL DCT VSM DCT ETROX DCT 3520N DCT IRKID/N0450F370 DCT TUXIV DCT IBBAN
Aircraft A319/M-SDE2E3FGILORWXYZ/HB1

Departure

Time 2026-05-06 16:00
Airport Pico Airport (LPPI)

Arrival

Time 2026-05-06 17:35
Airport Cristiano Ronaldo International Airport (LPMA)
Time Latitude Longitude Altitude Speed Heading
2026-05-06 15:34 38.55276 -28.44105 142 ft 0 kts 309°
2026-05-06 15:56 38.55286 -28.44111 141 ft 3 kts 336°
2026-05-06 15:56 38.55302 -28.44116 143 ft 0 kts 348°
2026-05-06 15:56 38.55319 -28.44119 143 ft 4 kts 351°
2026-05-06 15:57 38.55358 -28.44126 143 ft 7 kts 352°
2026-05-06 15:57 38.55424 -28.44120 139 ft 12 kts 34°
2026-05-06 15:57 38.55448 -28.44013 143 ft 14 kts 82°
2026-05-06 15:57 38.55460 -28.43888 145 ft 15 kts 83°
2026-05-06 15:58 38.55474 -28.43756 145 ft 16 kts 82°
2026-05-06 15:58 38.55490 -28.43604 144 ft 19 kts 82°
2026-05-06 15:58 38.55507 -28.43425 144 ft 21 kts 83°
2026-05-06 15:58 38.55525 -28.43253 141 ft 8 kts 83°
2026-05-06 15:59 38.55553 -28.43185 144 ft 9 kts 61°
2026-05-06 15:59 38.55531 -28.43179 143 ft 5 kts 257°
2026-05-06 15:59 38.55531 -28.43184 141 ft 0 kts 263°
2026-05-06 16:00 38.55493 -28.43562 140 ft 86 kts 262°
2026-05-06 16:00 38.55387 -28.44614 274 ft 138 kts 263°
2026-05-06 16:00 38.55274 -28.45867 908 ft 147 kts 263°
2026-05-06 16:00 38.55160 -28.47209 1663 ft 156 kts 263°
2026-05-06 16:01 38.55037 -28.48571 2342 ft 155 kts 264°
2026-05-06 16:01 38.54897 -28.49983 2809 ft 166 kts 262°
2026-05-06 16:01 38.54755 -28.51506 3287 ft 178 kts 263°
2026-05-06 16:01 38.54600 -28.53130 3743 ft 193 kts 262°
2026-05-06 16:02 38.54409 -28.54907 4142 ft 213 kts 262°
2026-05-06 16:02 38.54087 -28.56860 4568 ft 238 kts 246°
2026-05-06 16:02 38.53008 -28.58528 5270 ft 255 kts 217°
2026-05-06 16:02 38.51330 -28.59414 6115 ft 267 kts 199°
2026-05-06 16:03 38.49531 -28.60103 7011 ft 273 kts 199°
2026-05-06 16:03 38.47638 -28.60466 7901 ft 281 kts 182°
2026-05-06 16:03 38.45698 -28.60013 8836 ft 289 kts 162°
2026-05-06 16:03 38.43943 -28.58709 9745 ft 298 kts 142°
2026-05-06 16:04 38.42475 -28.56799 10520 ft 307 kts 136°
2026-05-06 16:04 38.41089 -28.54574 10800 ft 334 kts 126°
2026-05-06 16:04 38.39918 -28.51894 11031 ft 360 kts 116°
2026-05-06 16:04 38.39062 -28.48784 11191 ft 384 kts 105°
2026-05-06 16:05 38.38599 -28.45361 11580 ft 398 kts 99°
2026-05-06 16:05 38.38108 -28.41876 12131 ft 404 kts 106°
2026-05-06 16:05 38.37306 -28.38407 12716 ft 410 kts 108°
2026-05-06 16:05 38.36475 -28.34915 13279 ft 416 kts 109°
2026-05-06 16:06 38.35626 -28.31365 13843 ft 422 kts 109°
2026-05-06 16:06 38.34768 -28.27763 14375 ft 428 kts 109°
2026-05-06 16:06 38.33907 -28.24113 14931 ft 432 kts 108°
2026-05-06 16:06 38.33043 -28.20433 15504 ft 435 kts 108°
2026-05-06 16:07 38.32133 -28.16750 16078 ft 438 kts 112°
2026-05-06 16:07 38.30853 -28.13230 16653 ft 439 kts 121°
2026-05-06 16:07 38.29373 -28.09819 17238 ft 442 kts 122°
2026-05-06 16:07 38.27879 -28.06375 17818 ft 446 kts 121°
2026-05-06 16:08 38.26373 -28.02912 18342 ft 450 kts 121°
2026-05-06 16:08 38.24845 -27.99405 18805 ft 454 kts 122°
2026-05-06 16:08 38.23308 -27.95880 19259 ft 458 kts 122°
2026-05-06 16:08 38.21757 -27.92320 19707 ft 462 kts 122°
2026-05-06 16:09 38.20197 -27.88739 20136 ft 465 kts 122°
2026-05-06 16:09 38.18624 -27.85135 20598 ft 468 kts 122°
2026-05-06 16:09 38.17038 -27.81504 21013 ft 472 kts 122°
2026-05-06 16:09 38.15434 -27.77846 21427 ft 475 kts 122°
2026-05-06 16:10 38.13819 -27.74168 21827 ft 478 kts 122°
2026-05-06 16:10 38.12193 -27.70465 22212 ft 481 kts 122°
2026-05-06 16:10 38.10560 -27.66750 22630 ft 483 kts 122°
2026-05-06 16:10 38.08918 -27.63017 23016 ft 486 kts 122°
2026-05-06 16:11 38.07266 -27.59267 23385 ft 488 kts 122°
2026-05-06 16:11 38.05604 -27.55492 23752 ft 491 kts 122°
2026-05-06 16:11 38.03936 -27.51706 24064 ft 493 kts 122°
2026-05-06 16:11 38.02259 -27.47905 24369 ft 496 kts 122°
2026-05-06 16:12 38.00568 -27.44081 24690 ft 498 kts 122°
2026-05-06 16:12 37.98872 -27.40253 24981 ft 499 kts 122°
2026-05-06 16:12 37.97165 -27.36406 25302 ft 501 kts 122°
2026-05-06 16:12 37.95454 -27.32553 25594 ft 503 kts 122°
2026-05-06 16:13 37.93734 -27.28686 25876 ft 505 kts 122°
2026-05-06 16:13 37.92011 -27.24808 26155 ft 507 kts 122°
2026-05-06 16:13 37.90273 -27.20901 26430 ft 509 kts 122°
2026-05-06 16:13 37.88529 -27.16987 26711 ft 511 kts 122°
2026-05-06 16:14 37.86775 -27.13062 26965 ft 514 kts 122°
2026-05-06 16:14 37.85009 -27.09118 27207 ft 516 kts 122°
2026-05-06 16:14 37.83239 -27.05161 27477 ft 518 kts 122°
2026-05-06 16:14 37.81460 -27.01190 27722 ft 520 kts 122°
2026-05-06 16:15 37.79672 -26.97211 28007 ft 521 kts 122°
2026-05-06 16:15 37.77882 -26.93237 28369 ft 520 kts 122°
2026-05-06 16:15 37.76094 -26.89266 28743 ft 519 kts 122°
2026-05-06 16:15 37.74305 -26.85297 29126 ft 519 kts 122°
2026-05-06 16:16 37.72514 -26.81327 29468 ft 520 kts 122°
2026-05-06 16:16 37.70724 -26.77360 29806 ft 520 kts 122°
2026-05-06 16:16 37.68930 -26.73387 30171 ft 520 kts 122°
2026-05-06 16:16 37.67137 -26.69419 30505 ft 520 kts 122°
2026-05-06 16:17 37.65344 -26.65453 30811 ft 521 kts 121°
2026-05-06 16:17 37.63542 -26.61480 31094 ft 522 kts 121°
2026-05-06 16:17 37.61736 -26.57509 31384 ft 522 kts 121°
2026-05-06 16:17 37.59926 -26.53531 31688 ft 523 kts 121°
2026-05-06 16:18 37.58111 -26.49551 32003 ft 523 kts 121°
2026-05-06 16:18 37.56294 -26.45578 32312 ft 524 kts 121°
2026-05-06 16:18 37.54472 -26.41599 32627 ft 524 kts 121°
2026-05-06 16:18 37.52649 -26.37619 32929 ft 525 kts 121°
2026-05-06 16:19 37.50826 -26.33633 33239 ft 526 kts 121°
2026-05-06 16:19 37.48999 -26.29633 33556 ft 527 kts 120°
2026-05-06 16:19 37.47171 -26.25635 33880 ft 527 kts 120°
2026-05-06 16:19 37.45340 -26.21647 34251 ft 526 kts 121°
2026-05-06 16:20 37.43505 -26.17667 34569 ft 525 kts 120°
2026-05-06 16:20 37.41672 -26.13690 34908 ft 525 kts 120°
2026-05-06 16:20 37.39847 -26.09725 35241 ft 524 kts 120°
2026-05-06 16:20 37.38023 -26.05758 35572 ft 523 kts 120°
2026-05-06 16:21 37.36199 -26.01799 35893 ft 523 kts 120°
2026-05-06 16:21 37.34372 -25.97849 36207 ft 522 kts 120°
2026-05-06 16:21 37.32541 -25.93904 36529 ft 522 kts 121°
2026-05-06 16:21 37.30713 -25.89970 36856 ft 521 kts 121°
2026-05-06 16:22 37.28890 -25.86048 37145 ft 520 kts 120°
2026-05-06 16:22 37.27067 -25.82127 37232 ft 519 kts 120°
2026-05-06 16:22 37.23428 -25.74314 37239 ft 518 kts 121°
2026-05-06 16:23 37.19789 -25.66526 37243 ft 517 kts 121°
2026-05-06 16:23 37.16146 -25.58752 37241 ft 516 kts 121°
2026-05-06 16:24 37.12509 -25.50999 37241 ft 516 kts 120°
2026-05-06 16:24 37.08870 -25.43254 37242 ft 515 kts 120°
2026-05-06 16:25 37.05226 -25.35525 37241 ft 515 kts 121°
2026-05-06 16:25 37.01580 -25.27807 37245 ft 515 kts 121°
2026-05-06 16:26 36.97930 -25.20094 37228 ft 515 kts 120°
2026-05-06 16:26 36.94265 -25.12398 37237 ft 515 kts 121°
2026-05-06 16:27 36.90561 -25.04742 37239 ft 515 kts 121°
2026-05-06 16:27 36.86842 -24.97105 37271 ft 514 kts 121°
2026-05-06 16:28 36.83120 -24.89482 37246 ft 514 kts 121°
2026-05-06 16:28 36.80043 -24.83150 37247 ft 513 kts 121°
2026-05-06 16:29 36.76341 -24.75534 37246 ft 513 kts 121°
2026-05-06 16:29 36.72626 -24.67931 37261 ft 513 kts 121°
2026-05-06 16:30 36.69539 -24.61629 37239 ft 513 kts 121°
2026-05-06 16:30 36.65185 -24.52777 37241 ft 512 kts 121°
2026-05-06 16:31 36.61464 -24.45224 37239 ft 512 kts 121°
2026-05-06 16:31 36.57736 -24.37663 37254 ft 512 kts 121°
2026-05-06 16:32 36.54009 -24.30124 37236 ft 511 kts 121°
2026-05-06 16:32 36.50281 -24.22602 37238 ft 511 kts 121°
2026-05-06 16:33 36.46552 -24.15093 37237 ft 510 kts 121°
2026-05-06 16:34 36.40962 -24.03848 37245 ft 510 kts 118°
2026-05-06 16:34 36.38083 -23.95836 37232 ft 508 kts 110°
2026-05-06 16:35 36.35435 -23.87716 37231 ft 508 kts 110°
2026-05-06 16:35 36.32779 -23.79607 37230 ft 507 kts 110°
2026-05-06 16:36 36.30110 -23.71501 37242 ft 507 kts 110°
2026-05-06 16:36 36.27449 -23.63423 37236 ft 507 kts 110°
2026-05-06 16:37 36.24779 -23.55330 37223 ft 507 kts 110°
2026-05-06 16:37 36.22102 -23.47249 37219 ft 507 kts 110°
2026-05-06 16:38 36.19422 -23.39189 37236 ft 506 kts 110°
2026-05-06 16:38 36.16729 -23.31128 37228 ft 506 kts 110°
2026-05-06 16:39 36.14032 -23.23083 37217 ft 506 kts 111°
2026-05-06 16:39 36.11341 -23.15047 37222 ft 506 kts 110°
2026-05-06 16:40 36.08645 -23.07001 37227 ft 506 kts 110°
2026-05-06 16:40 36.05936 -22.98973 37221 ft 506 kts 111°
2026-05-06 16:41 36.03225 -22.90959 37215 ft 506 kts 111°
2026-05-06 16:41 36.00508 -22.82948 37208 ft 506 kts 111°
2026-05-06 16:42 35.97788 -22.74930 37226 ft 506 kts 110°
2026-05-06 16:42 35.95069 -22.66935 37203 ft 505 kts 110°
2026-05-06 16:43 35.92337 -22.58943 37206 ft 505 kts 110°
2026-05-06 16:43 35.89607 -22.50955 37206 ft 505 kts 111°
2026-05-06 16:44 35.86863 -22.42983 37218 ft 505 kts 110°
2026-05-06 16:44 35.84120 -22.35012 37209 ft 505 kts 110°
2026-05-06 16:45 35.81379 -22.27051 37184 ft 505 kts 110°
2026-05-06 16:45 35.78629 -22.19086 37193 ft 505 kts 110°
2026-05-06 16:46 35.75871 -22.11136 37198 ft 505 kts 111°
2026-05-06 16:46 35.73100 -22.03188 37194 ft 505 kts 111°
2026-05-06 16:47 35.70331 -21.95256 37194 ft 505 kts 111°
2026-05-06 16:47 35.67564 -21.87325 37195 ft 505 kts 111°
2026-05-06 16:48 35.64789 -21.79392 37205 ft 505 kts 111°
2026-05-06 16:48 35.62001 -21.71477 37201 ft 505 kts 111°
2026-05-06 16:49 35.59210 -21.63563 37203 ft 504 kts 111°
2026-05-06 16:49 35.56420 -21.55662 37200 ft 504 kts 111°
2026-05-06 16:50 35.53626 -21.47755 37190 ft 504 kts 111°
2026-05-06 16:50 35.50831 -21.39864 37181 ft 504 kts 111°
2026-05-06 16:51 35.48028 -21.31974 37185 ft 504 kts 111°
2026-05-06 16:51 35.45214 -21.24087 37186 ft 504 kts 111°
2026-05-06 16:52 35.42399 -21.16214 37183 ft 504 kts 111°
2026-05-06 16:52 35.39571 -21.08340 37204 ft 504 kts 111°
2026-05-06 16:53 35.36734 -21.00484 37196 ft 504 kts 111°
2026-05-06 16:53 35.33902 -20.92627 37183 ft 504 kts 111°
2026-05-06 16:54 35.31079 -20.84776 37175 ft 504 kts 111°
2026-05-06 16:54 35.28242 -20.76933 37204 ft 504 kts 111°
2026-05-06 16:55 35.25394 -20.69100 37190 ft 503 kts 111°
2026-05-06 16:55 35.22549 -20.61274 37186 ft 503 kts 111°
2026-05-06 16:56 35.19696 -20.53466 37162 ft 503 kts 111°
2026-05-06 16:56 35.16835 -20.45650 37189 ft 503 kts 111°
2026-05-06 16:57 35.13974 -20.37852 37188 ft 503 kts 111°
2026-05-06 16:57 35.11117 -20.30066 37185 ft 502 kts 111°
2026-05-06 16:58 35.08251 -20.22290 37179 ft 502 kts 111°
2026-05-06 16:58 35.05378 -20.14525 37174 ft 502 kts 111°
2026-05-06 16:59 35.02499 -20.06764 37179 ft 502 kts 111°
2026-05-06 16:59 34.99476 -19.99086 37172 ft 504 kts 118°
2026-05-06 17:00 34.95623 -19.91922 37162 ft 505 kts 121°
2026-05-06 17:00 34.91738 -19.84789 37163 ft 505 kts 121°
2026-05-06 17:01 34.87852 -19.77646 37180 ft 506 kts 121°
2026-05-06 17:01 34.83958 -19.70522 37167 ft 506 kts 121°
2026-05-06 17:02 34.80064 -19.63401 37160 ft 505 kts 121°
2026-05-06 17:02 34.76163 -19.56282 37163 ft 505 kts 121°
2026-05-06 17:03 34.72261 -19.49172 37157 ft 505 kts 121°
2026-05-06 17:03 34.68359 -19.42066 37163 ft 505 kts 121°
2026-05-06 17:04 34.64451 -19.34971 37142 ft 506 kts 121°
2026-05-06 17:04 34.60525 -19.27879 37146 ft 506 kts 121°
2026-05-06 17:05 34.56602 -19.20800 37150 ft 505 kts 121°
2026-05-06 17:05 34.52680 -19.13728 37151 ft 506 kts 121°
2026-05-06 17:06 34.48746 -19.06649 37164 ft 506 kts 121°
2026-05-06 17:06 34.44809 -18.99576 37153 ft 506 kts 121°
2026-05-06 17:07 34.40865 -18.92505 37144 ft 507 kts 121°
2026-05-06 17:07 34.37552 -18.86580 37144 ft 507 kts 121°
2026-05-06 17:08 34.33599 -18.79512 37139 ft 507 kts 121°
2026-05-06 17:08 34.29664 -18.72491 37142 ft 507 kts 121°
2026-05-06 17:09 34.25668 -18.65391 37134 ft 507 kts 122°
2026-05-06 17:09 34.21692 -18.58345 37144 ft 507 kts 122°
2026-05-06 17:10 34.17744 -18.51341 37157 ft 507 kts 122°
2026-05-06 17:10 34.13743 -18.44259 37178 ft 507 kts 122°
2026-05-06 17:11 34.09751 -18.37223 37160 ft 508 kts 122°
2026-05-06 17:11 34.05764 -18.30189 37144 ft 508 kts 122°
2026-05-06 17:12 34.01766 -18.23161 37142 ft 508 kts 122°
2026-05-06 17:12 33.97766 -18.16129 37139 ft 508 kts 122°
2026-05-06 17:13 33.93755 -18.09109 37136 ft 508 kts 122°
2026-05-06 17:13 33.89906 -18.01977 37130 ft 507 kts 117°
2026-05-06 17:14 33.86458 -17.94587 37112 ft 506 kts 115°
2026-05-06 17:14 33.83089 -17.87113 36430 ft 511 kts 115°
2026-05-06 17:14 33.81353 -17.83375 35797 ft 512 kts 115°
2026-05-06 17:15 33.79585 -17.79655 35216 ft 511 kts 116°
2026-05-06 17:15 33.77805 -17.75970 34664 ft 509 kts 116°
2026-05-06 17:15 33.76020 -17.72304 34173 ft 506 kts 116°
2026-05-06 17:15 33.74247 -17.68669 33585 ft 503 kts 116°
2026-05-06 17:16 33.72436 -17.65087 32997 ft 502 kts 120°
2026-05-06 17:16 33.70297 -17.61766 32405 ft 503 kts 128°
2026-05-06 17:16 33.67965 -17.58660 31855 ft 499 kts 128°
2026-05-06 17:16 33.65640 -17.55573 31290 ft 496 kts 128°
2026-05-06 17:17 33.63334 -17.52515 30744 ft 493 kts 128°
2026-05-06 17:17 33.61045 -17.49480 30189 ft 489 kts 128°
2026-05-06 17:17 33.58765 -17.46460 29552 ft 486 kts 128°
2026-05-06 17:17 33.56502 -17.43469 28925 ft 483 kts 128°
2026-05-06 17:18 33.54254 -17.40498 28317 ft 480 kts 128°
2026-05-06 17:18 33.52019 -17.37546 27737 ft 477 kts 128°
2026-05-06 17:18 33.49802 -17.34616 27150 ft 473 kts 128°
2026-05-06 17:18 33.47595 -17.31703 26557 ft 470 kts 128°
2026-05-06 17:19 33.45408 -17.28822 25997 ft 466 kts 128°
2026-05-06 17:19 33.43233 -17.25957 25444 ft 463 kts 128°
2026-05-06 17:19 33.41069 -17.23110 24902 ft 460 kts 129°
2026-05-06 17:19 33.38917 -17.20286 24369 ft 458 kts 129°
2026-05-06 17:20 33.36774 -17.17476 23844 ft 456 kts 129°
2026-05-06 17:20 33.34644 -17.14679 23256 ft 453 kts 128°
2026-05-06 17:20 33.32710 -17.11740 22657 ft 448 kts 123°
2026-05-06 17:20 33.30830 -17.08777 22033 ft 446 kts 123°
2026-05-06 17:21 33.28959 -17.05837 21404 ft 445 kts 124°
2026-05-06 17:21 33.27084 -17.02901 20792 ft 443 kts 124°
2026-05-06 17:21 33.25219 -16.99982 20181 ft 441 kts 124°
2026-05-06 17:21 33.23367 -16.97083 19582 ft 438 kts 125°
2026-05-06 17:22 33.21522 -16.94198 18996 ft 436 kts 125°
2026-05-06 17:22 33.19685 -16.91328 18419 ft 433 kts 126°
2026-05-06 17:22 33.17866 -16.88488 17864 ft 428 kts 126°
2026-05-06 17:22 33.16071 -16.85688 17215 ft 420 kts 126°
2026-05-06 17:23 33.14319 -16.82954 16578 ft 410 kts 126°
2026-05-06 17:23 33.12603 -16.80284 15934 ft 401 kts 126°
2026-05-06 17:23 33.10926 -16.77676 15352 ft 392 kts 126°
2026-05-06 17:23 33.09284 -16.75121 14745 ft 385 kts 126°
2026-05-06 17:24 33.07671 -16.72610 14159 ft 378 kts 126°
2026-05-06 17:24 33.06088 -16.70153 13522 ft 371 kts 126°
2026-05-06 17:24 33.04525 -16.67732 12885 ft 365 kts 126°
2026-05-06 17:24 33.02995 -16.65360 12243 ft 357 kts 126°
2026-05-06 17:25 33.01500 -16.63050 11620 ft 347 kts 128°
2026-05-06 17:25 32.99759 -16.61123 11002 ft 339 kts 148°
2026-05-06 17:25 32.97628 -16.60031 10398 ft 331 kts 168°
2026-05-06 17:25 32.95375 -16.59749 9852 ft 321 kts 179°
2026-05-06 17:26 32.93165 -16.59613 9272 ft 315 kts 179°
2026-05-06 17:26 32.90999 -16.59482 8706 ft 309 kts 178°
2026-05-06 17:26 32.88866 -16.59351 8146 ft 304 kts 178°
2026-05-06 17:26 32.86775 -16.59335 7582 ft 298 kts 189°
2026-05-06 17:27 32.84831 -16.60048 7054 ft 290 kts 210°
2026-05-06 17:27 32.83231 -16.61446 6522 ft 283 kts 225°
2026-05-06 17:27 32.81679 -16.62870 5959 ft 283 kts 214°
2026-05-06 17:27 32.79894 -16.63841 5391 ft 283 kts 201°
2026-05-06 17:28 32.78038 -16.64591 4844 ft 281 kts 200°
2026-05-06 17:28 32.76195 -16.65338 4271 ft 279 kts 200°
2026-05-06 17:28 32.74362 -16.66083 3780 ft 275 kts 200°
2026-05-06 17:28 32.72582 -16.66805 3403 ft 268 kts 200°
2026-05-06 17:29 32.70832 -16.67512 3018 ft 261 kts 200°
2026-05-06 17:29 32.69134 -16.68198 2669 ft 253 kts 200°
2026-05-06 17:29 32.67495 -16.68862 2424 ft 245 kts 200°
2026-05-06 17:29 32.65915 -16.69501 2293 ft 229 kts 199°
2026-05-06 17:30 32.64486 -16.70078 2155 ft 204 kts 199°
2026-05-06 17:30 32.63280 -16.70698 2115 ft 172 kts 211°
2026-05-06 17:30 32.62386 -16.71504 2070 ft 154 kts 225°
2026-05-06 17:30 32.61714 -16.72446 2029 ft 147 kts 238°
2026-05-06 17:31 32.61234 -16.73494 2004 ft 143 kts 249°
2026-05-06 17:31 32.60944 -16.74603 1978 ft 140 kts 261°
2026-05-06 17:31 32.60840 -16.75737 1941 ft 138 kts 272°
2026-05-06 17:31 32.60922 -16.76866 1905 ft 137 kts 284°
2026-05-06 17:32 32.61183 -16.77942 1881 ft 136 kts 294°
2026-05-06 17:32 32.61669 -16.78893 1737 ft 135 kts 311°
2026-05-06 17:32 32.62349 -16.79644 1578 ft 133 kts 327°
2026-05-06 17:32 32.63160 -16.80134 1410 ft 130 kts 343°
2026-05-06 17:33 32.64033 -16.80347 1242 ft 128 kts 357°
2026-05-06 17:33 32.64913 -16.80344 1079 ft 125 kts
2026-05-06 17:33 32.65781 -16.80305 933 ft 125 kts
2026-05-06 17:33 32.66641 -16.80171 792 ft 124 kts 12°
2026-05-06 17:34 32.67450 -16.79838 630 ft 124 kts 23°
2026-05-06 17:34 32.68171 -16.79273 436 ft 124 kts 37°
2026-05-06 17:34 32.68806 -16.78588 267 ft 123 kts 40°
2026-05-06 17:34 32.69374 -16.77931 178 ft 100 kts 42°
2026-05-06 17:35 32.69749 -16.77494 176 ft 51 kts 46°
2026-05-06 17:35 32.69924 -16.77291 176 ft 16 kts 44°
2026-05-06 17:35 32.69921 -16.77180 176 ft 18 kts 160°
2026-05-06 17:36 32.69747 -16.77291 176 ft 17 kts 225°
2026-05-06 17:36 32.69668 -16.77388 176 ft 14 kts 226°
2026-05-06 17:36 32.69615 -16.77453 176 ft 11 kts 226°
2026-05-06 17:36 32.69558 -16.77524 176 ft 13 kts 226°
2026-05-06 17:37 32.69494 -16.77605 176 ft 13 kts 227°
2026-05-06 17:37 32.69449 -16.77633 176 ft 7 kts 159°
2026-05-06 17:37 32.69422 -16.77604 176 ft 5 kts 138°
2026-05-06 17:37 32.69411 -16.77592 177 ft 0 kts 138°